Location: Altavilla Irpina
(41.0000°N, 14.7833°E)
Time: 17:10:03
(UTC+00:00)

Cosmos 2221 - Pass Details

Date: 19 May 2025
Orbit: 572 x 593 km, 82.5° (Epoch: 16 June)

Event Time Altitude Azimuth Distance (km) Brightness Sun altitude
Exits shadow 21:37:35 28° 269° (W) 1,098 3.9 -26.3°
Maximum altitude 21:38:08 29° 284° (WNW) 1,072 4.0 -26.3°
Drops below altitude 10° 21:41:49 10° 346° (NNW) 1,894 6.1 -26.6°
Sets 21:44:14 0° 357° (N) 2,795 7.1 -26.7°
